Date,TemperatureHighF,TemperatureAvgF,TemperatureLowF,DewpointHighF,DewpointAvgF,DewpointLowF,HumidityHigh,HumidityAvg,HumidityLow,PressureMaxIn,PressureMinIn,WindSpeedMaxMPH,WindSpeedAvgMPH,GustSpeedMaxMPH,PrecipitationSumIn
2013-1-1,42,38,34,28,25,21,72,59,44,29.91,29.29,10,6,19,0.00
2013-1-2,51,46,39,46,38,26,82,73,61,30.06,29.91,12,6,22,0.16
2013-1-3,51,50,48,44,37,30,76,60,46,30.39,30.06,16,8,29,0.00
2013-1-4,50,48,47,42,35,27,73,61,45,30.44,30.39,9,7,17,0.00
2013-1-5,50,48,45,40,33,27,71,57,45,30.44,30.27,13,6,25,0.04
2013-1-6,49,44,37,42,33,28,76,65,48,30.44,30.18,9,3,17,0.00
2013-1-7,49,48,47,42,39,33,75,72,58,30.18,30.00,7,3,13,0.20
2013-1-8,51,46,39,44,34,25,77,63,47,30.15,29.97,10,5,18,0.08
2013-1-9,44,39,36,36,29,23,77,66,52,30.15,30.03,7,3,12,0.00
2013-1-10,40,37,32,33,29,22,76,72,63,30.06,29.94,5,0,6,0.08
2013-1-11,41,37,32,34,31,25,78,77,75,30.00,29.94,5,1,7,0.00
2013-1-12,38,33,30,30,23,16,77,65,48,30.09,29.94,6,2,8,0.00
2013-1-13,36,33,30,27,23,16,69,65,56,30.12,29.97,6,1,11,0.04
2013-1-14,37,34,29,30,24,15,75,67,56,29.97,29.74,7,2,12,0.04
2013-1-15,35,30,22,26,20,13,69,65,57,29.91,29.80,6,1,8,0.00
2013-1-16,33,29,22,20,15,10,71,57,43,29.97,29.85,5,0,6,0.00
2013-1-17,33,31,30,15,12,7,51,44,34,30.00,29.80,7,2,15,0.00
2013-1-18,33,31,28,19,8,2,63,39,31,29.80,29.56,10,5,15,0.00
2013-1-19,35,32,31,22,17,13,67,53,42,29.71,29.56,8,5,13,0.00
2013-1-20,32,32,31,19,13,10,58,46,41,29.71,29.53,8,3,11,0.00
2013-1-21,34,33,32,26,21,11,75,63,41,29.53,29.47,14,4,22,0.00
2013-1-22,34,33,31,25,20,14,73,60,46,29.83,29.50,10,4,16,0.04
2013-1-23,34,33,30,24,19,15,67,57,49,29.94,29.83,6,2,9,0.00
2013-1-24,36,34,32,25,20,12,69,57,41,30.06,29.94,7,2,14,0.04
2013-1-25,36,33,32,25,18,11,69,52,40,29.94,29.38,8,3,15,0.08
2013-1-26,44,38,33,36,24,16,74,58,39,29.56,28.97,12,6,24,0.35
2013-1-27,46,40,36,37,26,18,72,59,42,29.20,28.79,17,10,27,0.31
2013-1-28,45,40,36,36,25,17,74,55,41,29.35,28.88,21,10,29,0.55
2013-1-29,51,44,42,44,27,16,76,53,31,29.35,28.97,21,9,35,0.28
2013-1-30,43,41,39,29,21,16,67,46,34,29.65,29.12,18,11,30,0.12
2013-1-31,44,40,36,34,24,18,76,55,35,29.65,29.20,18,8,30,0.59
2013-2-1,41,37,31,32,22,10,71,56,37,29.80,29.35,15,5,22,0.12
2013-2-2,41,32,25,19,11,6,53,42,26,30.18,29.80,10,3,13,0.00
2013-2-3,47,43,34,39,28,15,81,56,37,30.00,29.50,17,10,29,0.08
2013-2-4,48,36,32,40,21,15,74,54,39,29.59,29.32,21,10,33,0.28
2013-2-5,40,36,30,30,21,13,73,55,38,29.59,29.09,15,8,22,0.24
2013-2-6,40,36,31,16,9,6,42,32,26,30.12,29.59,16,8,23,0.00
2013-2-7,38,33,29,21,14,6,53,46,35,30.12,30.00,6,1,9,0.00
2013-2-8,42,36,30,30,21,14,69,54,32,30.18,30.06,8,1,11,0.08
2013-2-9,40,38,36,33,28,22,75,70,54,30.12,29.80,7,2,8,0.04
2013-2-10,37,35,34,28,26,23,74,70,59,29.80,29.41,9,5,15,0.20
2013-2-11,39,35,31,26,17,8,69,49,29,29.94,29.47,10,5,15,0.04
2013-2-12,36,33,31,14,13,11,46,42,35,30.06,29.94,6,3,9,0.00
2013-2-13,44,34,28,36,21,10,75,58,44,30.06,29.50,12,4,23,0.51
2013-2-14,46,43,41,37,28,21,76,58,39,29.83,29.53,12,7,20,0.00
2013-2-15,48,40,31,31,23,16,68,51,29,30.09,29.83,8,3,15,0.00
2013-2-16,47,41,32,35,28,17,70,58,47,30.12,30.09,9,3,13,0.00
2013-2-17,50,40,29,30,21,10,61,48,26,30.12,30.06,7,2,11,0.00
2013-2-18,50,32,25,34,13,5,71,48,24,30.12,30.09,6,1,8,0.00
2013-2-19,43,33,24,29,18,9,70,55,30,30.12,30.09,9,3,14,0.00
2013-2-20,41,36,27,32,22,8,76,57,39,30.30,30.12,6,2,12,0.00
2013-2-21,39,30,22,16,9,5,58,41,26,30.33,30.27,8,2,12,0.00
2013-2-22,34,32,30,11,6,3,42,34,30,30.30,30.27,5,1,8,0.00
2013-2-23,38,33,30,18,12,6,55,43,26,30.36,30.27,7,1,12,0.00
2013-2-24,39,34,30,29,22,18,68,60,45,30.48,30.36,6,1,12,0.08
2013-2-25,42,34,28,31,21,13,74,61,39,30.62,30.48,7,2,12,0.00
2013-2-26,43,37,34,32,24,16,76,61,38,30.68,30.59,8,2,13,0.00
2013-2-27,51,35,24,35,18,9,76,54,26,30.68,30.56,6,1,8,0.00
2013-2-28,52,39,27,40,22,13,77,53,29,30.59,30.50,5,0,6,0.00
2013-3-1,50,38,29,25,16,6,57,41,24,30.53,30.42,9,2,13,0.00
2013-3-2,54,42,29,36,22,13,71,46,26,30.42,30.24,9,2,13,0.00
2013-3-3,47,42,39,31,21,14,59,43,28,30.24,30.09,8,1,12,0.00
2013-3-4,47,39,29,21,17,13,51,42,27,30.09,29.74,7,2,12,0.00
2013-3-5,48,35,27,32,17,11,68,49,24,29.74,29.65,8,2,13,0.00
2013-3-6,40,38,36,32,25,21,77,60,50,29.74,29.65,10,5,17,0.00
2013-3-7,42,40,38,38,33,24,85,77,55,29.65,29.53,12,7,20,0.12
2013-3-8,39,38,37,31,29,24,77,69,55,29.71,29.56,13,8,20,0.04
2013-3-9,37,36,34,31,23,7,78,62,31,29.88,29.71,13,7,24,0.12
2013-3-10,36,31,25,20,11,3,60,43,27,30.09,29.88,13,6,23,0.08
2013-3-11,33,26,17,11,4,-6,55,40,25,30.12,30.09,10,5,20,0.00
2013-3-12,43,29,13,15,5,-6,48,36,23,30.12,29.88,9,2,13,0.20
2013-3-13,41,33,23,12,6,0,46,33,23,29.97,29.88,8,2,12,0.00
2013-3-14,41,34,22,25,16,1,59,47,38,29.97,29.59,13,4,17,0.00
2013-3-15,46,39,30,28,19,8,61,46,28,29.59,29.35,12,5,16,0.00
2013-3-16,36,33,28,28,24,13,76,69,51,29.38,29.20,6,1,10,0.16
2013-3-17,38,35,32,32,28,23,78,74,59,29.26,29.12,9,3,14,0.63
2013-3-18,38,35,32,32,26,19,77,69,54,29.53,29.26,14,6,18,0.12
2013-3-19,34,33,32,28,26,21,80,74,64,29.65,29.53,15,7,25,0.04
2013-3-20,38,34,29,28,20,10,80,58,34,30.03,29.65,9,2,13,0.47
2013-3-21,38,31,23,18,11,6,62,44,26,30.09,30.00,13,4,20,0.00
2013-3-22,34,33,31,23,14,10,72,47,37,30.00,29.94,18,11,27,0.00
2013-3-23,32,31,31,18,9,4,56,39,31,30.18,30.00,17,10,25,0.00
2013-3-24,35,32,30,9,6,3,38,33,27,30.27,30.18,15,9,25,0.00
2013-3-25,35,32,31,11,7,4,42,34,31,30.30,30.24,12,7,17,0.00
2013-3-26,37,31,22,13,8,-1,49,37,27,30.24,30.15,14,4,16,0.00
2013-3-27,38,31,23,19,12,3,61,44,27,30.15,30.09,9,3,18,0.08
2013-3-28,40,33,26,21,11,4,62,42,23,30.09,30.03,9,3,13,0.08
2013-3-29,39,32,24,19,11,3,54,42,26,30.03,29.91,7,2,13,0.04
2013-3-30,39,31,23,18,10,5,54,41,29,30.00,29.94,6,2,8,0.00
2013-3-31,43,30,19,16,6,3,54,37,23,30.03,29.94,8,3,10,0.00
2013-4-1,42,33,24,9,6,4,44,32,23,30.06,29.97,10,4,15,0.00
2013-4-2,42,34,27,15,9,1,50,34,26,30.24,30.06,7,2,13,0.00
2013-4-3,45,33,22,23,10,5,60,40,23,30.30,30.24,7,2,11,0.00
2013-4-4,46,38,30,20,13,6,51,37,22,30.27,30.21,9,4,15,0.00
2013-4-5,45,37,26,23,11,2,61,36,22,30.24,30.21,9,4,15,0.00
2013-4-6,50,36,24,23,10,6,57,36,21,30.27,30.18,10,3,15,0.00
2013-4-7,44,37,32,21,17,9,55,44,28,30.18,29.97,10,4,16,0.00
2013-4-8,44,37,32,19,11,2,51,35,23,29.97,29.74,10,6,15,0.00
2013-4-9,44,36,30,18,10,5,48,34,23,29.74,29.65,12,6,19,0.00
2013-4-10,44,37,31,28,21,16,67,52,38,29.71,29.59,9,4,13,0.00
2013-4-11,46,39,34,28,19,14,66,45,28,29.59,29.41,8,4,12,0.00
2013-4-12,48,39,34,27,23,16,66,52,31,29.65,29.38,8,4,15,0.00
2013-4-13,58,46,38,34,24,14,70,46,19,29.74,29.44,8,3,20,0.00
2013-4-14,56,51,49,40,32,24,67,48,29,29.50,29.38,16,10,28,0.28
2013-4-15,55,49,46,37,28,19,60,43,26,29.74,29.47,18,9,27,0.12
2013-4-16,52,48,43,33,22,12,59,38,21,29.83,29.38,23,12,36,0.08
2013-4-17,52,45,36,42,30,17,76,56,35,29.83,29.12,15,7,27,0.55
2013-4-18,51,46,40,40,26,16,76,46,27,29.91,29.12,21,10,31,0.20
2013-4-19,56,44,31,29,17,10,61,36,20,30.42,29.91,10,3,15,0.00
2013-4-20,56,46,34,25,18,12,52,34,20,30.42,30.12,15,6,24,0.00
2013-4-21,53,45,39,32,23,15,57,41,23,30.12,29.83,13,7,19,0.04
2013-4-22,54,46,39,37,24,18,62,44,25,29.85,29.59,17,9,28,0.04
2013-4-23,53,48,44,27,21,16,50,36,26,30.03,29.74,15,9,26,0.00
2013-4-24,55,48,42,44,23,10,77,40,20,30.21,29.85,14,6,23,0.31
2013-4-25,51,43,39,26,19,12,54,38,27,30.21,30.00,12,5,22,0.04
2013-4-26,51,41,36,22,16,10,53,38,21,30.03,29.85,14,6,24,0.00
2013-4-27,55,43,34,22,14,8,51,32,20,30.12,29.97,9,5,15,0.00
2013-4-28,49,43,37,36,23,11,74,46,27,29.97,29.62,16,10,24,0.08
2013-4-29,53,44,37,25,18,12,57,37,21,30.09,29.62,20,9,32,0.00
2013-4-30,58,43,29,29,15,10,59,35,19,30.30,30.09,12,3,17,0.00
2013-5-1,56,46,32,28,16,6,50,31,20,30.27,30.09,14,7,21,0.00
2013-5-2,56,43,28,30,17,6,56,37,20,30.27,30.00,14,5,20,0.00
2013-5-3,52,48,41,40,33,24,70,56,48,30.00,29.68,14,8,24,0.63
2013-5-4,50,44,36,26,20,13,61,40,24,29.88,29.74,16,8,28,0.00
2013-5-5,59,53,47,35,30,23,54,42,29,30.03,29.88,14,8,22,0.00
2013-5-6,59,51,42,37,31,22,65,47,30,30.06,30.00,10,5,18,0.00
2013-5-7,67,52,35,40,25,19,68,39,20,30.06,29.85,10,4,14,0.00
2013-5-8,59,51,45,39,28,15,71,43,23,29.85,29.50,10,6,18,0.00
2013-5-9,56,47,39,36,25,15,72,44,22,29.53,29.35,9,5,17,0.04
2013-5-10,54,47,37,38,29,20,75,53,26,29.62,29.38,12,5,20,0.04
2013-5-11,49,45,40,38,27,21,70,49,33,29.74,29.50,13,7,21,0.08
2013-5-12,51,46,40,40,28,17,68,49,30,29.80,29.59,13,7,22,0.08
2013-5-13,47,41,35,32,23,19,72,50,33,29.62,29.44,16,10,31,0.28
2013-5-14,52,44,36,30,23,16,65,45,26,29.44,29.38,20,8,27,0.12
2013-5-15,56,43,31,32,20,16,71,42,22,29.41,29.29,13,3,18,0.04
2013-5-16,58,45,33,29,19,12,61,38,20,29.71,29.38,8,4,14,0.00
2013-5-17,62,50,41,36,24,15,72,42,19,29.88,29.71,7,3,13,0.00
2013-5-18,53,50,46,46,38,22,86,65,35,29.85,29.71,10,3,20,0.87
2013-5-19,60,52,47,55,48,44,89,86,75,29.97,29.80,10,2,17,0.04
2013-5-20,71,60,53,53,42,30,75,56,23,30.03,29.91,8,2,15,0.00
2013-5-21,66,53,40,44,28,20,71,42,20,30.09,30.03,9,3,14,0.00
2013-5-22,59,50,38,27,19,11,49,30,19,30.09,30.00,18,7,28,0.00
2013-5-23,51,43,32,20,13,9,49,31,21,30.03,29.91,16,8,29,0.00
2013-5-24,57,47,36,21,16,11,44,29,21,30.21,29.91,13,6,20,0.00
2013-5-25,62,42,32,33,19,12,63,41,19,30.21,30.12,9,3,14,0.00
2013-5-26,62,50,37,31,22,13,53,34,24,30.12,29.77,9,4,15,0.00
2013-5-27,55,50,45,31,27,20,51,42,30,29.77,29.44,12,6,23,0.00
2013-5-28,58,49,44,33,27,20,56,43,25,29.80,29.53,9,3,16,0.00
2013-5-29,63,53,36,37,28,21,66,40,24,29.94,29.80,8,2,13,0.00
2013-5-30,69,57,47,34,27,22,48,33,22,30.09,29.91,8,2,14,0.00
2013-5-31,66,54,44,35,26,17,61,34,21,30.18,30.06,12,5,17,0.00
2013-6-1,61,50,38,32,21,16,53,33,21,30.30,30.18,10,5,17,0.04
2013-6-2,67,52,34,33,22,17,62,34,18,30.44,30.30,10,4,15,0.00
2013-6-3,70,58,42,35,29,20,53,35,22,30.50,30.44,7,2,9,0.00
2013-6-4,68,58,48,34,27,22,51,32,20,30.50,30.33,8,4,13,0.00
2013-6-5,69,55,48,45,32,26,68,43,22,30.33,30.18,9,4,13,0.00
2013-6-6,75,57,46,42,31,22,68,42,18,30.27,30.18,6,1,9,0.00
2013-6-7,64,52,40,43,29,24,69,44,24,30.33,30.27,9,3,13,0.00
2013-6-8,76,56,39,46,29,22,70,40,18,30.33,30.12,10,2,15,0.00
2013-6-9,65,54,48,40,32,24,65,44,24,30.15,30.00,9,4,17,0.00
2013-6-10,63,54,47,39,33,26,68,48,25,30.03,29.91,8,4,13,0.00
2013-6-11,62,54,46,46,37,24,71,55,24,29.91,29.71,7,2,11,0.08
2013-6-12,64,56,49,45,34,24,67,44,24,29.71,29.59,13,4,18,0.04
2013-6-13,63,53,43,40,25,18,67,36,21,29.80,29.59,15,5,18,0.00
2013-6-14,66,55,46,36,27,22,66,37,20,29.83,29.59,10,6,17,0.04
2013-6-15,54,50,47,40,32,22,69,52,29,29.59,29.41,15,6,24,0.12
2013-6-16,67,55,45,46,32,22,76,47,20,30.00,29.59,7,2,10,0.00
2013-6-17,66,56,46,45,35,27,71,47,24,30.09,30.00,6,2,10,0.00
2013-6-18,73,61,51,45,32,23,62,38,19,30.06,29.94,8,2,13,0.00
2013-6-19,68,57,48,36,27,20,57,34,20,30.03,29.97,12,4,20,0.00
2013-6-20,77,62,45,35,29,20,52,31,18,30.03,29.80,9,3,20,0.00
2013-6-21,68,62,56,38,30,20,47,32,20,29.83,29.62,9,3,13,0.00
2013-6-22,62,55,50,40,33,24,65,44,26,29.62,29.32,14,4,18,0.08
2013-6-23,62,55,49,46,34,23,72,49,24,29.94,29.38,15,6,25,0.04
2013-6-24,61,53,46,32,24,17,55,33,21,30.27,29.94,10,4,15,0.04
2013-6-25,64,53,38,36,25,18,59,34,20,30.39,30.27,9,3,14,0.00
2013-6-26,68,57,45,40,27,19,64,35,20,30.42,30.39,10,4,15,0.00
2013-6-27,58,54,48,44,35,23,63,49,37,30.42,30.15,7,3,13,0.08
2013-6-28,65,56,49,49,37,19,75,52,26,30.15,29.91,14,7,23,0.16
2013-6-29,60,54,47,45,30,23,67,41,25,30.15,30.06,12,6,20,0.00
2013-6-30,62,56,50,45,34,27,66,45,27,30.12,29.88,17,8,28,0.08
2013-7-1,62,54,48,36,26,17,61,36,21,29.91,29.85,12,7,18,0.00
2013-7-2,58,53,48,43,34,24,65,50,33,29.91,29.47,13,4,26,0.12
2013-7-3,63,58,54,46,36,26,72,48,26,29.83,29.47,9,4,15,0.04
2013-7-4,63,58,53,51,34,22,73,43,24,30.15,29.74,16,8,24,0.20
2013-7-5,71,59,52,43,31,25,69,37,22,30.39,30.15,12,6,20,0.00
2013-7-6,76,63,46,41,30,25,64,32,18,30.44,30.33,12,5,16,0.00
2013-7-7,80,66,55,50,35,27,68,36,17,30.62,30.44,9,5,13,0.00
2013-7-8,81,64,53,53,41,33,74,49,19,30.65,30.50,8,1,12,0.00
2013-7-9,88,70,56,52,39,31,68,38,16,30.50,30.33,13,5,17,0.00
2013-7-10,72,61,53,46,39,28,67,47,22,30.42,30.36,9,4,15,0.00
2013-7-11,84,67,54,44,38,34,56,38,18,30.39,30.27,7,1,9,0.00
2013-7-12,85,70,56,53,38,31,69,36,16,30.27,30.21,12,4,15,0.00
2013-7-13,79,64,56,52,39,30,68,43,17,30.33,30.24,8,4,13,0.00
2013-7-14,73,62,54,46,34,23,71,40,19,30.33,30.18,13,5,19,0.00
2013-7-15,62,56,52,39,35,28,54,46,29,30.21,30.18,8,5,13,0.00
2013-7-16,73,65,60,56,38,28,82,40,21,30.24,30.18,20,5,20,0.00
2013-7-17,74,65,53,59,56,51,96,74,54,30.33,30.24,12,4,20,0.00
2013-7-18,83,69,56,65,60,54,95,75,51,30.36,30.32,9,4,15,0.00
2013-7-19,76,65,53,62,58,52,97,78,60,30.38,30.33,10,5,17,0.00
2013-7-20,72,63,57,63,58,55,96,85,70,30.36,30.27,10,4,17,0.00
2013-7-21,68,60,56,59,56,52,94,86,71,30.28,30.14,10,4,24,0.00
2013-7-22,66,60,57,61,58,56,97,93,83,30.14,29.99,13,4,20,0.00
2013-7-23,70,62,59,66,61,58,97,94,84,29.99,29.85,9,3,15,0.40
2013-7-24,73,64,56,65,60,54,98,86,68,29.89,29.85,8,2,12,0.07
2013-7-25,66,61,57,63,59,55,97,94,89,29.88,29.79,8,3,13,0.13
2013-7-26,72,62,55,64,59,53,97,88,65,29.85,29.81,8,2,18,0.98
2013-7-27,76,61,50,61,56,49,98,86,56,29.84,29.65,8,2,12,0.07
2013-7-28,65,60,56,61,57,54,97,93,82,29.65,29.52,7,2,13,0.77
2013-7-29,67,59,52,62,57,52,98,93,81,29.74,29.61,10,2,18,0.14
2013-7-30,70,59,50,56,53,49,98,83,51,29.79,29.73,14,4,23,0.12
2013-7-31,68,59,50,57,53,48,98,83,53,29.87,29.75,9,2,13,0.12
2013-8-1,71,63,57,64,61,56,98,93,79,29.75,29.61,10,3,20,0.28
2013-8-2,74,66,59,62,58,54,95,78,55,29.62,29.53,15,6,30,0.01
2013-8-3,66,60,55,55,52,50,91,78,55,29.84,29.56,20,8,29,0.02
2013-8-4,70,60,51,56,52,49,95,79,55,29.90,29.83,14,5,21,0.03
2013-8-5,68,56,49,58,52,48,97,86,62,29.88,29.74,9,2,16,0.00
2013-8-6,65,56,45,54,49,43,98,80,60,29.98,29.86,8,2,13,0.00
2013-8-7,67,58,48,58,53,47,96,84,63,30.06,29.96,6,1,12,0.04
2013-8-8,70,58,49,60,53,47,98,85,61,30.06,29.91,16,2,22,0.03
2013-8-9,66,59,53,57,54,48,96,82,63,30.11,29.86,13,5,23,0.02
2013-8-10,63,57,52,53,50,48,91,79,62,30.11,29.98,10,4,16,0.00
2013-8-11,63,56,51,53,51,49,95,85,65,29.98,29.86,13,6,22,0.05
2013-8-12,65,57,50,53,50,48,95,80,58,30.02,29.84,13,6,22,0.00
2013-8-13,65,56,45,52,48,43,97,76,56,30.14,30.02,9,3,14,0.00
2013-8-14,70,60,49,59,54,47,95,82,62,30.14,29.93,10,4,20,0.03
2013-8-15,66,62,59,63,60,58,96,93,85,29.92,29.74,12,5,20,0.17
2013-8-16,67,59,51,60,54,49,96,85,66,29.86,29.73,14,5,21,0.02
2013-8-17,69,59,52,62,55,50,96,87,65,29.84,29.39,16,7,30,0.17
2013-8-18,61,56,52,53,50,48,92,82,65,29.80,29.45,16,8,26,0.02
2013-8-19,64,56,52,54,51,48,94,82,60,30.17,29.80,15,6,25,0.02
2013-8-20,67,58,53,58,54,50,95,86,66,30.24,30.14,10,4,16,0.05
2013-8-21,72,62,57,62,58,56,96,87,63,30.14,30.03,10,4,16,0.03
2013-8-22,65,58,55,61,57,54,98,95,87,30.12,30.00,9,3,16,0.00
2013-8-23,68,59,47,62,56,46,99,90,78,30.00,29.87,7,1,13,0.00
2013-8-24,67,59,56,57,54,52,97,85,64,29.97,29.90,8,2,15,0.02
2013-8-25,68,58,45,61,54,44,97,87,76,30.16,29.97,5,1,9,0.01
2013-8-26,73,60,49,62,56,48,98,85,67,30.17,30.09,7,2,12,0.00
2013-8-27,67,58,49,60,55,47,97,88,74,30.21,30.07,8,2,14,0.00
2013-8-28,67,57,52,57,52,46,96,84,66,30.21,30.08,9,4,15,0.00
2013-8-29,62,58,52,57,54,47,95,89,80,30.09,30.00,12,5,20,0.01
2013-8-30,64,58,50,60,54,44,94,89,79,30.08,29.84,17,6,25,0.02
2013-8-31,62,54,47,49,45,40,91,75,48,30.29,30.08,15,6,27,0.00
2013-9-1,58,55,52,55,51,48,95,86,77,30.28,30.13,17,9,29,0.01
2013-9-2,65,61,56,60,58,55,95,90,83,30.24,30.10,16,9,29,0.00
2013-9-3,71,62,53,61,57,51,97,86,61,30.25,30.18,12,5,20,0.02
2013-9-4,70,59,52,56,52,48,96,80,57,30.18,29.90,13,4,21,0.00
2013-9-5,65,55,40,53,47,38,93,75,48,29.91,29.86,12,3,16,0.00
2013-9-6,55,48,41,50,46,39,97,91,76,29.94,29.88,8,2,16,0.55
2013-9-7,60,51,46,53,48,44,98,90,69,29.92,29.75,9,3,18,0.35
2013-9-8,59,50,40,50,45,38,97,85,67,29.98,29.92,7,2,12,0.01
2013-9-9,61,51,44,52,48,42,97,88,66,30.17,29.96,9,1,14,0.00
2013-9-10,65,53,42,52,47,41,97,81,59,30.25,30.17,13,3,21,0.00
2013-9-11,59,54,46,57,52,44,97,95,92,30.24,30.08,6,1,10,0.36
2013-9-12,66,58,53,60,56,51,96,91,73,30.09,29.87,10,4,20,0.05
2013-9-13,53,50,46,51,48,44,96,93,85,30.09,29.97,8,1,13,0.07
2013-9-14,61,49,38,49,44,37,98,85,58,30.08,29.93,8,2,13,0.00
2013-9-15,57,50,42,56,47,40,97,89,66,29.92,29.21,21,9,36,0.53
2013-9-16,54,47,41,48,43,39,93,87,73,29.35,29.28,16,8,26,0.01
2013-9-17,56,48,40,48,44,38,95,85,71,29.40,29.30,13,6,22,0.00
2013-9-18,57,47,39,48,43,38,98,88,68,29.74,29.40,14,4,24,0.02
2013-9-19,53,48,44,52,47,42,97,96,93,29.77,29.51,8,2,14,0.24
2013-9-20,59,52,42,51,47,40,98,86,64,30.05,29.77,13,5,24,0.02
2013-9-21,62,56,50,59,54,48,94,91,85,30.11,30.03,13,5,21,0.00
2013-9-22,68,62,54,59,57,52,94,85,68,30.29,30.10,14,6,25,0.00
2013-9-23,66,57,48,60,55,47,98,93,81,30.28,30.11,7,1,10,0.00
2013-9-24,59,57,55,57,56,54,98,97,95,30.11,29.96,7,2,12,0.01
2013-9-25,55,52,45,54,51,43,98,96,89,30.05,29.90,9,3,20,0.04
2013-9-26,56,50,41,51,47,40,98,90,78,30.12,30.05,6,1,10,0.00
2013-9-27,59,55,51,56,53,50,97,94,87,30.07,29.93,6,0,7,0.04
2013-9-28,65,55,46,58,52,45,99,89,75,29.93,29.86,7,2,14,0.00
2013-9-29,62,53,48,53,48,45,94,85,65,29.93,29.89,10,4,17,0.00
2013-9-30,58,52,48,51,48,46,95,87,75,29.91,29.82,13,4,20,0.00
2013-10-1,59,52,47,50,48,45,92,84,67,29.90,29.83,9,3,18,0.01
2013-10-2,58,55,53,55,52,48,95,89,84,29.85,29.75,9,4,17,0.20
2013-10-3,66,60,56,62,58,55,97,94,84,29.77,29.53,7,2,12,0.34
2013-10-4,60,58,53,59,56,52,98,95,87,29.82,29.52,8,3,14,0.12
2013-10-5,59,55,51,53,52,50,95,89,74,30.09,29.81,12,5,17,0.00
2013-10-6,61,58,56,58,56,53,95,92,83,30.09,30.04,13,6,22,0.01
2013-10-7,66,61,59,59,58,56,95,89,79,30.08,29.98,17,7,26,0.05
2013-10-8,59,55,50,58,52,47,96,91,83,30.16,29.97,15,7,21,0.03
2013-10-9,52,48,42,48,42,33,94,80,63,30.14,29.94,20,9,30,0.03
2013-10-10,52,44,37,41,37,33,92,77,63,30.44,30.14,12,4,21,0.00
2013-10-11,50,46,38,45,41,36,92,84,81,30.51,30.44,7,3,15,0.00
2013-10-12,54,49,46,48,46,43,94,89,78,30.48,30.27,8,3,23,0.00
2013-10-13,54,49,46,49,47,43,97,92,79,30.27,30.03,9,4,22,0.12
2013-10-14,53,50,46,50,48,44,97,94,87,30.03,29.93,7,2,14,0.01
2013-10-15,52,48,42,50,47,41,97,95,88,29.99,29.90,8,3,14,0.02
2013-10-16,51,46,37,48,44,36,98,95,89,29.98,29.59,8,2,15,0.61
2013-10-17,53,48,45,52,48,44,98,97,95,29.97,29.63,8,2,13,0.20
2013-10-18,52,49,45,52,48,44,98,96,93,29.99,29.68,8,5,13,0.17
2013-10-19,58,54,50,57,52,49,98,96,94,29.67,29.45,7,2,12,0.54
2013-10-20,58,52,48,55,51,47,99,96,87,29.47,29.40,6,2,10,0.07
2013-10-21,57,52,49,56,51,48,99,95,90,29.52,29.26,10,3,17,0.24
2013-10-22,58,56,54,57,55,52,98,96,90,29.26,29.09,10,3,20,0.39
2013-10-23,55,51,45,54,48,41,98,91,76,29.56,28.99,17,6,26,0.41
2013-10-24,54,48,41,48,44,39,95,88,74,29.90,29.56,12,5,21,0.00
2013-10-25,59,52,47,56,50,44,98,93,85,29.84,29.31,12,5,21,0.16
2013-10-26,54,51,45,53,48,43,95,92,82,29.43,29.14,14,5,22,0.11
2013-10-27,52,48,44,48,46,43,96,93,85,29.17,28.84,20,8,38,0.51
2013-10-28,52,47,43,48,45,42,96,93,82,29.33,28.88,13,6,23,0.17
2013-10-29,51,45,41,45,42,39,95,89,78,29.87,29.33,12,6,21,0.00
2013-10-30,52,45,38,51,44,36,98,93,84,29.92,29.59,13,5,25,0.11
2013-10-31,52,46,43,47,43,41,96,90,78,29.82,29.59,20,8,32,0.24
2013-11-1,50,44,41,44,42,39,95,89,78,29.61,29.55,17,8,26,0.01
2013-11-2,45,40,34,44,39,33,97,95,89,29.55,28.84,12,4,20,0.31
2013-11-3,48,42,33,41,38,32,95,86,72,29.28,28.95,17,7,30,0.02
2013-11-4,48,36,30,42,33,29,98,92,73,29.38,29.21,6,1,10,0.01
2013-11-5,42,35,29,41,34,28,98,96,91,29.33,29.18,8,1,18,0.05
2013-11-6,45,41,37,43,39,35,97,95,91,29.37,29.25,10,4,18,0.09
2013-11-7,47,42,38,43,39,36,96,91,79,29.48,29.38,17,8,28,0.29
2013-11-8,48,42,35,44,40,34,97,93,81,29.54,29.46,13,5,21,0.02
2013-11-9,42,36,29,40,34,28,98,96,92,29.66,29.50,9,2,16,0.04
2013-11-10,46,35,28,42,33,27,99,94,79,30.11,29.66,7,1,14,0.01
2013-11-11,54,48,42,53,45,39,98,91,82,30.03,29.81,12,6,22,0.06
2013-11-12,48,44,41,46,41,39,95,90,77,30.36,30.03,14,6,26,0.10
2013-11-13,48,45,41,45,42,39,96,90,79,30.37,29.80,16,9,29,0.11
2013-11-14,48,41,35,44,37,32,94,83,62,30.48,29.79,14,5,25,0.01
2013-11-15,49,47,38,48,44,37,97,92,87,30.47,30.35,13,7,21,0.01
2013-11-16,51,49,42,50,47,39,95,92,87,30.35,30.21,15,8,26,0.01
2013-11-17,44,39,32,43,38,31,98,95,88,30.35,29.92,5,1,9,0.08
2013-11-18,44,38,32,43,37,30,98,94,81,29.92,29.76,9,2,15,0.01
2013-11-19,41,32,23,40,30,22,98,91,77,30.03,29.61,17,4,28,0.20
2013-11-20,44,40,35,42,36,32,96,85,74,29.80,29.39,20,10,30,0.18
2013-11-21,40,35,26,33,30,24,92,81,73,30.16,29.80,13,4,22,0.00
2013-11-22,40,29,23,34,26,21,98,91,72,30.30,30.16,5,0,7,0.01
2013-11-23,46,35,27,42,33,26,98,95,83,30.44,30.29,3,1,6,0.00
2013-11-24,41,35,29,40,34,28,98,96,92,30.68,30.44,2,0,5,0.01
2013-11-25,40,34,26,40,33,26,98,96,95,30.73,30.68,3,1,8,0.01
2013-11-26,50,46,39,49,45,38,98,96,94,30.70,30.51,10,5,17,0.08
2013-11-27,51,50,47,49,48,46,97,94,88,30.52,30.47,10,6,18,0.00
2013-11-28,47,40,33,46,39,32,99,96,93,30.61,30.34,10,2,17,0.02
2013-11-29,46,42,34,45,39,32,97,88,81,30.34,30.10,18,8,33,0.15
2013-11-30,46,39,30,45,37,29,97,93,84,30.41,30.30,10,3,20,0.00
2013-12-1,51,43,36,47,41,35,98,95,85,30.58,30.38,8,2,14,0.01
2013-12-2,46,44,38,44,42,38,98,92,87,30.58,30.33,15,5,22,0.00
2013-12-3,48,46,36,46,44,34,96,94,91,30.32,30.11,14,8,23,0.07
2013-12-4,43,39,33,41,36,32,97,92,84,30.28,30.06,17,5,32,0.05
2013-12-5,47,39,32,45,35,26,95,87,70,30.11,29.45,31,13,52,0.64
2013-12-6,36,33,30,32,29,25,95,84,73,30.32,30.11,12,2,17,0.00
2013-12-7,47,41,33,46,40,32,98,96,94,30.21,29.94,15,5,24,0.13
2013-12-8,53,50,47,51,48,45,97,95,93,29.95,29.84,18,12,28,0.36
2013-12-9,52,50,48,51,48,44,97,93,86,30.18,29.95,17,8,23,0.13
2013-12-10,52,49,47,49,46,43,94,90,84,30.20,30.12,14,7,27,0.00
2013-12-11,51,48,42,49,45,38,95,89,79,30.23,30.00,12,6,24,0.00
2013-12-12,53,50,46,52,48,40,97,93,74,30.00,29.90,12,6,26,0.29
2013-12-13,54,50,42,51,47,38,96,91,85,29.91,29.68,16,8,36,0.02
2013-12-14,51,45,38,49,43,35,96,92,87,29.90,29.43,22,10,40,0.62
2013-12-15,48,43,38,46,41,36,97,92,84,29.84,29.52,20,7,40,0.35
2013-12-16,48,42,39,45,39,36,93,90,85,29.94,29.50,16,10,26,0.14
2013-12-17,44,40,36,40,37,34,92,89,83,30.07,29.72,15,7,27,0.01
2013-12-18,51,46,41,48,43,37,94,90,79,29.72,28.73,22,9,39,0.22
2013-12-19,43,38,35,37,35,33,95,88,80,29.47,28.81,29,13,41,0.13
2013-12-20,50,43,37,48,41,35,96,93,87,29.73,29.35,25,11,40,0.61
2013-12-21,47,44,39,44,40,37,95,88,81,29.48,29.24,21,11,32,0.28
2013-12-22,40,38,35,37,36,33,95,91,86,29.51,29.28,18,11,36,0.24
2013-12-23,48,41,35,46,39,33,97,93,89,29.51,28.29,14,7,29,0.28
2013-12-24,47,40,37,46,35,32,94,85,72,28.45,28.23,25,15,44,0.11
2013-12-25,44,41,39,38,37,35,92,86,78,29.06,28.45,23,13,40,0.14
2013-12-26,42,38,34,38,36,32,95,91,85,29.28,28.60,9,4,24,0.01
2013-12-27,44,42,38,43,41,36,96,93,90,28.74,28.16,24,14,44,0.83
2013-12-28,41,40,38,39,38,36,95,92,87,29.48,28.74,20,10,33,0.11
2013-12-29,45,40,37,43,39,35,96,94,89,29.78,29.46,14,5,25,0.09
2013-12-30,47,42,36,46,41,35,97,96,94,29.59,29.28,15,5,26,0.98
2013-12-31,45,41,36,43,39,35,97,93,89,29.58,29.22,10,5,25,0.03
2014-1-1,46,40,37,45,39,35,98,95,92,29.27,28.67,15,5,23,0.13
2014-1-2,45,42,39,42,40,37,96,93,87,29.12,28.67,15,7,29,0.02